Rbgn^[z[y[W
メイン
   新天体発見情報
     Comet P/2001 T3 = 2018 P2 (NEAT)
投稿するにはまず登録を

スレッド表示 | 古いものから 前のトピック | 次のトピック | 下へ
投稿者 スレッド
佐藤裕久
投稿日時: 2018-8-21 22:53
モデレータ
登録日: 2005-6-12
居住地: 日本
投稿: 2505
オンライン
Comet P/2001 T3 = 2018 P2 (NEAT)

Erwin Schwab (Egelsbach, ドイツ)の通報によると、彼は、8月10.2日UT、Pablo Ruizがスペイン領
カナリア諸島Tenerife島にあるESA(欧州宇宙機関)の光学地上局の1.0-m f/4.4反射望遠鏡で得た画像
からP/2001 T3を検出した。この彗星はp.a. 270°に約10"伸びたかすかな尾が見える。
M. Micheliの報告によると、8月12.3日、F. Monteiroと5人の他の観測者が、ブラジルNova Itacuruba
にあるObservatorio Astronomico do Sertao de Itaparica (OASI)の 1.0-m f/7 反射望遠鏡で得た
観測で確認した。
MPC 94679のG. V. Williamsの予報に対して、Delta(T)は、-1.16 daysであった。

検出位置は次のとおり、

     2018 UT             R.A. (2000) Decl.       Mag.   Observer
     Aug. 10.19601    5 51 36.15   +27 48 20.5   18.8   Ruiz
          10.20355    5 51 37.01   +27 48 23.0   18.8     "
          10.21109    5 51 37.86   +27 48 26.1   19.0     "
          12.31315    5 55 38.41   +28 01 00.4   20.8   Monteiro
          12.31562    5 55 38.71   +28 01 00.9   20.4     "

連結軌道要素と位置推算表は次のとおり、

Orbital elements:
    P/2001 T3 (NEAT)
Epoch 2002 Feb. 15.0 TT = JDT 2452320.5
T 2002 Feb. 1.09383 TT                                  MPCW
q   2.5057379            (2000.0)            P               Q
n   0.05936926     Peri.  356.23282     +0.60193915     -0.74994104
a   6.5077115      Node    56.53924     +0.74097367     +0.39647532
e   0.6149587      Incl.   19.19781     +0.29770335     +0.52952409
P  16.60
From 143 observations 2001 Aug. 20-2018 Aug. 12, mean residual 0".5.

    P/2001 T3 (NEAT)
Epoch 2018 June 11.0 TT = JDT 2458280.5
T 2018 June  9.50134 TT                                 MPCW
q   2.4853397            (2000.0)            P               Q
n   0.06023086     Peri.  356.77946     +0.61382989     -0.74088027
a   6.4455008      Node    55.16339     +0.73151499     +0.40397684
e   0.6144070      Incl.   19.39738     +0.29681423     +0.53656234
P  16.36
From 143 observations 2001 Aug. 20-2018 Aug. 12, mean residual 0".5.

    P/2001 T3 (NEAT)
Epoch 2034 Oct. 5.0 TT = JDT 2464240.5
T 2034 Oct. 12.99640 TT                                 MPCW
q   2.4996555            (2000.0)            P               Q
n   0.05927240     Peri.  357.02013     +0.62673766     -0.73235841
a   6.5147993      Node    53.99765     +0.72156133     +0.41647977
e   0.6163112      Incl.   19.20959     +0.29419237     +0.53869820
P  16.63
From 143 observations 2001 Aug. 20-2018 Aug. 12, mean residual 0".5.

    P/2001 T3 (NEAT)
Epoch 2018 Mar. 23.0 TT = JDT 2458200.5
T 2018 June  9.51568 TT                                 MPCW
q   2.4853242            (2000.0)            P               Q
n   0.06022988     Peri.  356.78399     +0.61376969     -0.74093066
a   6.4455705      Node    55.16351     +0.73154804     +0.40391887
e   0.6144136      Incl.   19.39725     +0.29685726     +0.53653640
P  16.36
From 143 observations 2001 Aug. 20-2018 Aug. 12, mean residual 0".5.

Ephemeris:
    P/2001 T3 (NEAT)
Date    TT    R. A. (2000) Decl.     Delta      r     Elong.  Phase   m1
2018 07 14    04 58 28.5 +24 39 54   3.2627  2.5027    35.3    13.6  19.6
...
2018 07 29    05 28 00.1 +26 30 14   3.1687  2.5210    42.9    15.9  19.5
...
2018 08 06    05 43 32.3 +27 22 32   3.1133  2.5333    47.0    17.0  19.5
...
2018 08 12    05 55 02.4 +27 59 07   3.0693  2.5436    50.3    17.8  19.5
2018 08 13    05 56 56.4 +28 05 01   3.0618  2.5454    50.8    18.0  19.5
2018 08 14    05 58 50.2 +28 10 51   3.0542  2.5473    51.3    18.1  19.5
...
2018 08 20    06 10 05.8 +28 44 49   3.0076  2.5589    54.6    18.8  19.5
...
2018 08 28    06 24 45.6 +29 27 37   2.9428  2.5758    59.2    19.7  19.5
...
2018 09 12    06 50 53.0 +30 42 58   2.8138  2.6117    68.1    21.0  19.4

(CBET 4539、MPEC 2018-P81)

スレッド表示 | 古いものから 前のトピック | 次のトピック | トップ

投稿するにはまず登録を
 
© 1999 Tsutomu Seki.